Time,TemperatureF,DewpointF,PressureIn,WindDirection,WindDirectionDegrees,WindSpeedMPH,WindSpeedGustMPH,Humidity,HourlyPrecipIn,Conditions,Clouds,dailyrainin,SoftwareType,DateUTC
2013-09-05 03:22:00,64.0,55.0,29.21,SSW,200,0.0,0.0,73,0.00,,,-99.99,,2013-09-05 08:22:00,
2013-09-05 03:52:00,63.0,54.0,29.21,SSW,200,0.0,0.0,73,0.00,,,-99.99,,2013-09-05 08:52:00,
2013-09-05 04:22:00,66.0,55.0,29.21,SSW,200,0.0,0.0,67,0.00,,,-99.99,,2013-09-05 09:22:00,
2013-09-05 04:54:00,66.0,55.0,29.21,SSW,200,0.0,0.0,67,0.00,,,-99.99,,2013-09-05 09:54:00,
2013-09-05 05:23:00,64.0,55.0,29.21,SSW,200,0.0,0.0,73,0.00,,,-99.99,,2013-09-05 10:23:00,
2013-09-05 05:53:00,60.0,53.0,29.21,SSW,200,0.0,0.0,79,0.00,,,-99.99,,2013-09-05 10:53:00,
2013-09-05 06:22:00,60.0,57.0,29.21,SSW,200,0.0,0.0,91,0.00,,,-99.99,,2013-09-05 11:22:00,
2013-09-05 06:52:00,60.0,60.0,29.23,SSW,200,0.0,0.0,100,0.00,,,-99.99,,2013-09-05 11:52:00,
2013-09-05 07:21:00,59.0,59.0,29.21,SSW,200,0.0,0.0,100,0.00,,,-99.99,,2013-09-05 12:21:00,
2013-09-05 07:52:00,65.0,65.0,29.23,SSW,200,0.0,0.0,100,0.00,,,-99.99,,2013-09-05 12:52:00,
2013-09-05 09:52:00,74.0,57.0,29.26,East,89,0.0,0.0,55,0.00,,,-99.99,,2013-09-05 14:52:00,
2013-09-05 12:23:00,85.0,60.0,29.26,East,84,0.0,6.0,43,0.00,,,-99.99,,2013-09-05 17:23:00,
2013-09-05 12:52:00,86.0,61.0,29.26,SE,145,0.0,8.0,43,0.00,,,-99.99,,2013-09-05 17:52:00,
2013-09-05 13:12:00,87.0,62.0,29.26,East,83,0.0,3.0,43,0.00,,,-99.99,,2013-09-05 18:12:00,
2013-09-05 14:52:00,87.0,62.0,29.21,SSE,165,4.0,9.0,43,0.00,,,-99.99,,2013-09-05 19:52:00,
2013-09-05 15:22:00,87.0,62.0,29.21,South,180,7.0,7.0,43,0.00,,,-99.99,,2013-09-05 20:22:00,
2013-09-05 15:32:00,87.0,62.0,29.21,South,180,7.0,7.0,43,0.00,,,-99.99,,2013-09-05 20:32:00,
2013-09-05 15:52:00,86.0,61.0,29.21,SSW,192,8.0,10.0,43,0.00,,,-99.99,,2013-09-05 20:52:00,
2013-09-05 16:21:00,87.0,62.0,29.21,South,177,4.0,8.0,43,0.00,,,-99.99,,2013-09-05 21:21:00,
2013-09-05 16:54:00,86.0,61.0,29.21,South,178,7.0,10.0,43,0.00,,,-99.99,,2013-09-05 21:54:00,
2013-09-05 17:24:00,86.0,61.0,29.21,South,190,6.0,6.0,43,0.00,,,-99.99,,2013-09-05 22:24:00,
2013-09-05 17:53:00,86.0,61.0,29.21,SSW,193,3.0,4.0,43,0.00,,,-99.99,,2013-09-05 22:53:00,
2013-09-05 18:22:00,85.0,60.0,29.18,South,190,0.0,6.0,43,0.00,,,-99.99,,2013-09-05 23:22:00,
2013-09-05 18:53:00,84.0,59.0,29.18,SE,146,0.0,0.0,43,0.00,,,-99.99,,2013-09-05 23:53:00,
2013-09-05 19:22:00,82.0,61.0,29.18,SE,133,0.0,0.0,49,0.00,,,-99.99,,2013-09-06 00:22:00,
2013-09-05 19:52:00,78.0,61.0,29.18,ENE,71,0.0,0.0,55,0.00,,,-99.99,,2013-09-06 00:52:00,
2013-09-05 20:22:00,77.0,60.0,29.18,ENE,64,0.0,0.0,55,0.00,,,-99.99,,2013-09-06 01:22:00,
2013-09-05 20:52:00,75.0,58.0,29.21,ENE,66,0.0,0.0,55,0.00,,,-99.99,,2013-09-06 01:52:00,